Simultaneous Nadir Overpasses (SNOs) Predictions

Prediction of SNOs between METOP-A and NOAA-19 Satellite Orbit:

Table of predicted SNOs for the next 14.0 days since TLE Epoch: 7/17/2021
Index Date (METOP-A) Time (METOP-A) Lat,Lon (METOP-A) SZA (METOP-A ) Date (NOAA-19) Time (NOAA-19) Lat,Lon (NOAA-19) SZA (NOAA-19 ) Distance(km) Time Diff (sec)
1 07/17/2021 08:32:58 -80.78,-121.38 120.36 07/17/2021 08:32:05 -80.78,-121.50 120.37 2.21 53
2 07/17/2021 09:23:38 80.80, 46.19 59.67 07/17/2021 09:23:00 80.79, 46.27 59.66 1.53 38
3 07/17/2021 10:14:19 -80.79,-146.53 120.34 07/17/2021 10:14:04 -80.79,-146.53 120.34 0.19 15
4 07/17/2021 11:05:00 80.78, 20.70 59.67 07/17/2021 11:05:01 80.79, 20.51 59.66 3.30 1
5 07/17/2021 11:55:41 -80.78,-172.03 120.34 07/17/2021 11:56:04 -80.79,-171.91 120.32 2.34 23
6 07/17/2021 12:46:21 80.80, -4.45 59.69 07/17/2021 12:47:00 80.80, -4.51 59.69 1.07 39
7 07/17/2021 13:37:02 -80.79, 162.82 120.31 07/17/2021 13:38:04 -80.79, 162.70 120.31 2.21 62
8 07/28/2021 10:36:59 80.75, 26.89 61.85 07/28/2021 10:35:44 80.76, 26.95 61.86 1.31 75
9 07/28/2021 11:27:40 -80.75,-165.74 118.14 07/28/2021 11:26:49 -80.76,-165.58 118.13 3.13 51
10 07/28/2021 12:18:20 80.76, 1.74 61.89 07/28/2021 12:17:43 80.77, 1.92 61.89 3.25 37
11 07/28/2021 13:09:01 -80.76, 169.10 118.11 07/28/2021 13:08:49 -80.76, 169.02 118.11 1.40 12
12 07/28/2021 13:59:41 80.77, -23.41 61.92 07/28/2021 13:59:43 80.77, -23.48 61.91 1.24 2
13 07/28/2021 14:50:22 -80.78, 143.95 118.07 07/28/2021 14:50:48 -80.77, 143.99 118.07 0.86 26
14 07/28/2021 15:41:03 80.76, -48.91 61.92 07/28/2021 15:41:43 80.77, -48.87 61.93 1.12 40



Historial Predications of SNOs between METOP-A and NOAA-19
